[Iaude] MPEC C147: 2024 CK3 [a=1.78,e=0.43,i=10.2,H=24.6]

mpec at cfa.harvard.edu mpec at cfa.harvard.edu
Tue Feb 13 08:32:20 EST 2024


M.P.E.C. 2024-C147                            Issued 2024 February 13, 13:30 UT

     The Minor Planet Electronic Circulars contain information on unusual
         minor planets, routine data on comets and natural satellites,
         and occasional editorial announcements.  They are published
    on behalf of Division F of the International Astronomical Union by the
          Minor Planet Center, Smithsonian Astrophysical Observatory,
                          Cambridge, MA 02138, U.S.A.
			  
             Prepared using the Tamkin Foundation Computer Network

                              MPC at CFA.HARVARD.EDU
            URL https://www.minorplanetcenter.net/    ISSN 1523-6714

                                    2024 CK3                                    


Observations:
     K24C03K* C2024 02 11.91319608 36 40.015-13 12 53.50         18.57oVEC147M22
     K24C03K  C2024 02 11.91640708 36 43.250-13 12 16.52         19.05oVEC147M22
     K24C03K  C2024 02 11.91826908 36 45.094-13 11 55.28         19.21oVEC147M22
     K24C03K  C2024 02 11.92148508 36 48.286-13 11 18.92         18.92oVEC147M22
     K24C03K  C2024 02 11.92286008 36 49.658-13 11 02.26         18.98oVEC147M22
     K24C03K  C2024 02 11.92700308 36 53.782-13 10 14.45         19.20oVEC147M22
     K24C03K  C2024 02 11.93296308 36 59.748-13 09 05.22         19.05oVEC147M22
     K24C03K  C2024 02 11.93734908 37 04.214-13 08 13.88         18.95oVEC147M22
     K24C03K  C2024 02 12.19098608 41 35.91 -12 19 00.9                WEC147X09
     K24C03K  C2024 02 12.19335108 41 38.27 -12 18 33.3                WEC147X09
     K24C03K KB2024 02 12.47779 08 46 53.43 -11 25 26.5          18.9 GXEC147Q06
     K24C03K KB2024 02 12.48156 08 46 57.35 -11 24 42.5          18.9 GXEC147Q06
     K24C03K KB2024 02 12.48533 08 47 01.20 -11 23 56.2          18.4 GXEC147Q06
     K24C03K KC2024 02 12.52929 08 47 43.52 -11 11 44.2          19.2 VqEC147E23
     K24C03K KC2024 02 12.54040 08 47 54.71 -11 09 30.3          18.8 VqEC147E23
     K24C03K KC2024 02 12.55151 08 48 06.01 -11 07 16.8          18.8 VqEC147E23
     K24C03K KC2024 02 12.85364408 53 39.47 -10 09 50.5          19.2 GXEC147958
     K24C03K KC2024 02 12.85827508 53 44.25 -10 08 55.0          19.1 GXEC147958
     K24C03K KC2024 02 12.86290508 53 49.02 -10 07 57.9          19.2 GXEC147958
     K24C03K KB2024 02 12.88890508 54 15.87 -10 02 43.2                XEC147I93
     K24C03K KB2024 02 12.89112508 54 18.15 -10 02 15.9          19.0 GXEC147I93
     K24C03K KB2024 02 12.89414308 54 21.27 -10 01 39.2          19.2 GXEC147I93
     K24C03K KC2024 02 12.89608 08 54 21.62 -10 01 16.5          19.2 GVEC147104
     K24C03K KC2024 02 12.90637 08 54 32.18 -09 59 11.5                VEC147104
     K24C03K 1C2024 02 12.91670 08 54 42.41 -09 57 18.1          19.3 VXEC147033
     K24C03K 1C2024 02 12.91695 08 54 42.64 -09 57 14.9          19.0 VXEC147033
     K24C03K 1C2024 02 12.91717 08 54 42.88 -09 57 11.9          18.9 VXEC147033
     K24C03K KC2024 02 13.03257608 56 42.33 -09 33 18.5                VEC147204
     K24C03K KC2024 02 13.04133608 56 51.40 -09 31 29.5          19.2 GVEC147204
     K24C03K  C2024 02 13.04159 08 56 48.77 -09 27 28.1          18.8 GVEC147M28
     K24C03K  C2024 02 13.04566 08 56 52.95 -09 26 37.6          18.8 GVEC147M28
     K24C03K KB2024 02 13.09141408 57 51.159-09 17 59.59         19.2 VZEC147Y05
     K24C03K KB2024 02 13.09474908 57 54.515-09 17 18.27         19.2 VZEC147Y05
     K24C03K KB2024 02 13.09803408 57 57.816-09 16 37.60               ZEC147Y05
     K24C03K |C2024 02 13.17321008 59 19.480-09 00 30.60         19.0 GVEC147807
     K24C03K |C2024 02 13.17454008 59 20.850-09 00 13.80         18.9 GVEC147807
     K24C03K |C2024 02 13.17587008 59 22.180-08 59 57.40         19.1 GVEC147807
     K24C03K |C2024 02 13.17721008 59 23.540-08 59 40.70         18.7 GVEC147807
     K24C03K KB2024 02 13.22804 09 00 20.07 -08 52 40.8          19.3 GVEC147734
     K24C03K KC2024 02 13.22830809 00 22.25 -08 52 28.2          19.4 GXEC147858
     K24C03K KC2024 02 13.23506909 00 29.16 -08 51 04.2          19.0 GXEC147858
     K24C03K KB2024 02 13.24001 09 00 32.28 -08 50 12.3          18.8 GVEC147734
     K24C03K KC2024 02 13.24208709 00 36.32 -08 49 37.1          19.1 GXEC147858
     K24C03K KB2024 02 13.24599 09 00 38.38 -08 48 57.4          18.6 GVEC147734
     K24C03K KB2024 02 13.25184 09 00 44.37 -08 47 44.5          18.8 GVEC147734
     K24C03K KB2024 02 13.52027 09 05 41.72 -07 51 27.3          19.2 GXEC147Q06
     K24C03K KB2024 02 13.52566 09 05 47.31 -07 50 20.8          18.4 GXEC147Q06
     K24C03K KB2024 02 13.53106 09 05 52.88 -07 49 12.5          18.5 GXEC147Q06

Observer details:
033 Karl Schwarzschild Observatory, Tautenburg.  Observers S. Melnikov, C.
    Hogner, F. Ludwig, M. Hartmann, B. Stecklum.  Measurer B. Stecklum.
    1.34-m f/3 Schmidt + CCD.
104 San Marcello Pistoiese.  Observers P. Bacci, M. Maestripieri.  Measurer P.
    Bacci.  0.60-m f/4.0 reflector + CCD.
204 Schiaparelli Observatory.  Observer L. Buzzi.  0.84-m f/3.5 reflector +
    CMO.
734 Farpoint Observatory, Eskridge.  Observers D. Cromer, G. Hug, D. Goodin,
    R. Valentine.  Measurer D. Cromer.  0.69-m f/3.54 reflector + CMO.
807 Cerro Tololo Observatory, La Serena.  Observers T. Linder, R. Holmes.
    0.61-m f/11 Ritchey-Chretien + CCD.
858 Tebbutt Observatory, Edgewood.  Observer F. B. Zoltowski.  0.51-m f/8.1
    Schmidt-Cassegrain + CCD.
958 Observatoire de Dax.  Observers P. Dupouy, J. B. de Vanssay.  Measurer P.
    Dupouy.  0.43-m f/2.7 Reflector + CCD.
E23 Arcadia.  Observer A. Hidas.  0.35-m f/1.9 reflector + CCD.
I93 St Pardon de Conques.  Observer F. Losse.  0.40-m f/3.7 reflector + CCD.
M22 ATLAS South Africa, Sutherland.  Observers L. Denneau, R. Siverd, J.
    Tonry, H. Weiland.  Measurers L. Denneau, N. Erasmus, A. Fitzsimmons, A.
    Lawrence, J. Robinson, R. Siverd, J. Tonry, H. Weiland.  0.5-m Reflector +
    CCD.
M28 Lesedi Telescope-SAAO Observatory, Sutherland.  Observers N. Erasmus, S.
    Potter, C. van Gend, S. Chandra, H. Worters.  Measurers T. Ngwane, N.
    Erasmus.  1.0-m f/8 Reflector + CCD.
Q06 Tarui Observatory, Tarui.  Observer H. Watanabe.  0.35-m f/1.9 Schmidt-
    Cassegrain + CMO.
X09 Deep Random Survey, Rio Hurtado.  Observers A. Schnabel, D. Ruhela.
    Measurer S. Deen.  0.43-m reflector + CMOS.
Y05 SONEAR Wykrota-CEAMIG, Serra da Piedade.  Observer C. Jacques.  0.45-m
    f/2.9 reflector + CMO.

Orbital elements:
2024 CK3                                                 Earth MOID = 0.0437 AU
Epoch 2023 Sept. 13.0 TT = JDT 2460200.5                Veres                   
M 301.10710              (2000.0)            P               Q                  
n   0.41457386     Peri.  341.33382     -0.65535889     -0.74988652             
a   1.7812906      Node   149.41674     +0.71364676     -0.65396109             
e   0.4268488      Incl.   10.23621     +0.24741266     -0.10002554             
P   2.38           H   24.60          G   0.15           U   7                  
Residuals in seconds of arc
240211 M22  0.1-  0.4+    240212 958  0.8+  0.5-    240213 Y05  0.0   0.1-
240211 M22  0.3+  0.3+    240212 958  0.2+  1.2-    240213 Y05  0.2-  0.1-
240211 M22  0.0   0.0     240212 958  0.5-  0.3-    240213 807  0.1-  0.1-
240211 M22  0.3-  0.8-    240212 I93  0.8+  0.2+    240213 807  0.2+  0.1+
240211 M22  0.3-  0.0     240212 I93  0.6+  0.4+    240213 807  0.1-  0.0
240211 M22  0.5-  0.2-    240212 I93  0.6+  0.3+    240213 807  0.1-  0.0
240211 M22  0.4-  0.0     240212 104  0.2+  0.3+    240213 734  0.4+  0.3+
240211 M22  0.7+  0.5+    240212 104  0.0   0.5-    240213 858  0.1-  0.3-
240212 X09  0.6-  0.1+    240212 033  0.5-  1.0-    240213 858  0.0   0.2-
240212 X09  0.9-  0.2-    240212 033  0.9-  0.8-    240213 734  0.1-  0.2-
240212 Q06  0.0   0.3+    240212 033  0.7-  0.6-    240213 858  0.1-  0.4-
240212 Q06  0.6+  0.4-    240213 204  0.2+  0.0     240213 734  0.3-  0.2+
240212 Q06  0.3+  1.2+    240213 204  0.2+  0.1+    240213 734  0.2-  0.1+
240212 E23  0.1+  0.3-    240213 M28  0.1+  0.3+    240213 Q06  0.2-  0.6+
240212 E23  0.7-  0.1+    240213 M28  0.4-  0.0     240213 Q06  0.5+  0.4-
240212 E23  0.2+  0.0     240213 Y05  0.1+  0.1-    240213 Q06  0.8+  0.2+

Ephemeris:
2024 CK3                 a,e,i = 1.78, 0.43, 10                  q = 1.0209
Date    TT    R. A. (2000) Decl.     Delta      r    Elong.  Phase     V
2024 01 14    04 52 27.9 -35 16 53   0.1419  1.0426   110.8    61.8    22.7
...
2024 01 29    05 48 18.9 -33 42 27   0.08543 1.0219   113.5    62.1    21.5
...
2024 02 06    07 04 02.3 -27 05 18   0.05851 1.0219   126.5    50.9    20.4
...
2024 02 12    08 38 12.2 -12 57 21   0.04614 1.0269   149.1    29.6    19.3
2024 02 13    08 56 10.5 -09 37 34   0.04534 1.0281   153.9    25.0    19.1
2024 02 14    09 14 16.6 -06 08 06   0.04500 1.0295   158.9    20.2    18.9
...
2024 02 20    10 53 02.0 +13 14 14   0.05237 1.0401   169.4    10.1    18.9
...
2024 02 28    12 14 15.0 +26 05 35   0.07871 1.0602   151.6    26.4    20.4
...
2024 03 14    13 09 07.9 +31 51 21   0.1453  1.1143   143.5    32.1    22.0

M. P. C. Staff               (C) Copyright 2024 MPC           M.P.E.C. 2024-C147





More information about the Iaude mailing list